<?xml version="1.0" encoding="UTF-8" standalone="no" ?>
<gpx xmlns="http://www.topografix.com/GPX/1/1" xmlns:xsi="http://www.w3.org/2001/XMLSchema-instance" xsi:schemaLocation="http://www.topografix.com/GPX/1/1 http://www.topografix.com/GPX/1/1/gpx.xsd" version="1.1" creator="VisuGPX - https://www.visugpx.com">
  <metadata>
    <name>secteur Saverne - Dabo - Petite Pierre</name>
  </metadata>
  <trk>
    <name><![CDATA[secteur Saverne - Dabo - Petite Pierre_7]]></name>
    <trkseg>
      <trkpt lat="48.64488" lon="7.14674">
        <ele>378.1</ele>
        <time>2020-08-12T07:44:04Z</time>
      </trkpt>
      <trkpt lat="48.64488" lon="7.14674">
        <ele>378.1</ele>
        <time>2020-08-12T07:44:04Z</time>
      </trkpt>
      <trkpt lat="48.64488" lon="7.14674">
        <ele>378.1</ele>
        <time>2020-08-12T07:44:04Z</time>
      </trkpt>
      <trkpt lat="48.64488" lon="7.14674">
        <ele>378.1</ele>
        <time>2020-08-12T07:44:04Z</time>
      </trkpt>
      <trkpt lat="48.64488" lon="7.14674">
        <ele>378.1</ele>
        <time>2020-08-12T07:44:04Z</time>
      </trkpt>
      <trkpt lat="48.64488" lon="7.14674">
        <ele>378.1</ele>
        <time>2020-08-12T07:44:04Z</time>
      </trkpt>
      <trkpt lat="48.64488" lon="7.14674">
        <ele>378.1</ele>
        <time>2020-08-12T07:44:04Z</time>
      </trkpt>
      <trkpt lat="48.64488" lon="7.14674">
        <ele>378.1</ele>
        <time>2020-08-12T07:44:04Z</time>
      </trkpt>
      <trkpt lat="48.64495" lon="7.14674">
        <ele>379.3</ele>
        <time>2020-08-12T07:44:06Z</time>
      </trkpt>
      <trkpt lat="48.64501" lon="7.14673">
        <ele>381.5</ele>
        <time>2020-08-12T07:44:09Z</time>
      </trkpt>
      <trkpt lat="48.64505" lon="7.14674">
        <ele>387.2</ele>
        <time>2020-08-12T07:44:15Z</time>
      </trkpt>
      <trkpt lat="48.64509" lon="7.14678">
        <ele>398.1</ele>
        <time>2020-08-12T07:44:54Z</time>
      </trkpt>
      <trkpt lat="48.64516" lon="7.14679">
        <ele>397</ele>
        <time>2020-08-12T07:44:59Z</time>
      </trkpt>
      <trkpt lat="48.64521" lon="7.14681">
        <ele>397.1</ele>
        <time>2020-08-12T07:45:01Z</time>
      </trkpt>
      <trkpt lat="48.64516" lon="7.14677">
        <ele>398.8</ele>
        <time>2020-08-12T07:45:28Z</time>
      </trkpt>
      <trkpt lat="48.64511" lon="7.14676">
        <ele>399.1</ele>
        <time>2020-08-12T07:45:30Z</time>
      </trkpt>
      <trkpt lat="48.64506" lon="7.14674">
        <ele>399.4</ele>
        <time>2020-08-12T07:45:32Z</time>
      </trkpt>
      <trkpt lat="48.64501" lon="7.14671">
        <ele>398.7</ele>
        <time>2020-08-12T07:45:34Z</time>
      </trkpt>
    </trkseg>
  </trk>
</gpx>